Home   Weather   United Kingdom   Bristol   Past weeks
Flag for United Kingdom

Past Weather in Bristol, England, United Kingdom — Yesterday and Last 2 Weeks

Currently: 55 °F. Partly sunny. (Weather station: Bristol / Lulsgate, United Kingdom). See more current weather

Past Weather in Bristol — Graph

°F

Bristol Temperature Yesterday

Maximum temperature yesterday: 63 °F (at 1:50 pm)
Minimum temperature yesterday: 55 °F (at 1:50 am)
Average temperature yesterday: 58 °F

High & Low Weather Summary for the Past Weeks

 TemperatureHumidityPressure
High68 °F (Sep 21, 3:20 pm)100% (Sep 22, 11:20 pm)30.33 "Hg (Sep 22, 11:20 pm)
Low45 °F (Sep 25, 7:20 am)45% (Sep 24, 3:20 pm)29.47 "Hg (Sep 30, 6:20 pm)
Average56 °F81%29.93 "Hg
* Reported Sep 20 12:20 pm — Oct 5 12:20 pm, Bristol. Weather by CustomWeather, © 2022

Note: Actual official high and low records may vary slightly from our data, if they occured in-between our weather recording intervals... More about our weather records

Bristol Weather History for the Previous 24 Hours

Scroll right to see more
 ConditionsComfort  
Time TempWeatherWind HumidityBarometerVisibility
12:20 pm
Wed, Oct 5
55 °FLight rain. Broken clouds.22 mph94%29.77 "HgN/A
11:50 am57 °FLight rain. Broken clouds.24 mph94%29.74 "HgN/A
11:20 am59 °FLow clouds.20 mph100%29.68 "HgN/A
10:20 am61 °FLow clouds.21 mph88%29.68 "HgN/A
9:50 am63 °FMostly cloudy.21 mph83%29.71 "HgN/A
9:20 am63 °FPartly sunny.18 mph83%29.71 "HgN/A
8:20 am61 °FBroken clouds.16 mph88%29.71 "HgN/A
7:20 am61 °FLow clouds.16 mph88%29.74 "HgN/A
6:50 am59 °FLow clouds.12 mph94%29.74 "HgN/A
6:20 am61 °FLow clouds.15 mph88%29.74 "HgN/A
5:50 am59 °FLow clouds.13 mph94%29.77 "HgN/A
5:20 am59 °FLow clouds.13 mph94%29.77 "HgN/A
4:50 am59 °FLow clouds.13 mph94%29.77 "HgN/A
4:20 am59 °FLow clouds.13 mph94%29.80 "HgN/A
3:50 am59 °FLow clouds.16 mph94%29.80 "HgN/A
3:20 am59 °FLow clouds.17 mph94%29.80 "HgN/A
2:50 am59 °FLow clouds.16 mph94%29.83 "HgN/A
2:20 am59 °FOvercast.13 mph88%29.83 "HgN/A
1:50 am59 °FOvercast.16 mph88%29.86 "HgN/A
12:20 am59 °FOvercast.14 mph88%29.89 "HgN/A
11:20 pm
Tue, Oct 4
59 °FOvercast.16 mph88%29.89 "HgN/A
10:50 pm59 °FOvercast.14 mph88%29.89 "HgN/A
10:20 pm59 °FOvercast.14 mph88%29.92 "HgN/A
9:50 pm59 °FOvercast.9 mph88%29.92 "HgN/A
9:20 pm59 °FOvercast.10 mph88%29.92 "HgN/A
8:20 pm59 °FOvercast.10 mph88%29.95 "HgN/A
7:50 pm59 °FOvercast.12 mph88%29.95 "HgN/A
7:20 pm59 °FOvercast.12 mph88%29.95 "HgN/A
6:50 pm59 °FOvercast.12 mph88%29.95 "HgN/A
6:20 pm59 °FMostly cloudy.10 mph88%29.95 "HgN/A
5:50 pm59 °FOvercast.13 mph88%29.95 "HgN/A
5:20 pm61 °FOvercast.15 mph83%29.95 "HgN/A
4:20 pm61 °FMostly cloudy.14 mph83%29.95 "HgN/A
3:20 pm63 °FOvercast.14 mph77%29.98 "HgN/A
2:20 pm63 °FScattered clouds.15 mph77%29.98 "HgN/A
1:50 pm63 °FScattered clouds.14 mph77%29.98 "HgN/A
1:20 pm61 °FPartly sunny.16 mph83%29.98 "HgN/A
Weather by CustomWeather, © 2022

See weather overview